DLH400 EDDF-KJFK

Flight info

Callsign DLH400
Flight time N/A
Altitude 32000
Route OBOKA3D/07C OBOKA Z29 TORNU DCT GALSO Q63 ERING L179 UGBET Q60 OKSAW DCT TEWXI DCT LIPGO DCT ENULA DCT PIKIL/M080F320 DCT 57N020W 58N030W 58N040W 57N050W DCT HOIST/N0465F320 N746B TAFFY/N0457F360 DCT ENE PARCH4
Aircraft A343/H-SDE2E3FGHIJ4J5M1RWXY/LB1D1

Departure

Time 2026-04-14 10:44
Airport Frankfurt Main Airport (EDDF)

Arrival

Time N/A
Airport John F. Kennedy International Airport (KJFK)
Time Latitude Longitude Altitude Speed Heading
2026-04-14 10:00 50.04671 8.56046 360 ft 0 kts 340°
2026-04-14 10:30 50.04649 8.56059 367 ft 4 kts 340°
2026-04-14 10:31 50.04624 8.56073 367 ft 4 kts 338°
2026-04-14 10:31 50.04603 8.56094 366 ft 4 kts 304°
2026-04-14 10:31 50.04596 8.56130 361 ft 4 kts 260°
2026-04-14 10:31 50.04598 8.56149 362 ft 2 kts 251°
2026-04-14 10:32 50.04589 8.56111 363 ft 4 kts 249°
2026-04-14 10:32 50.04580 8.56072 362 ft 4 kts 249°
2026-04-14 10:32 50.04576 8.56056 364 ft 0 kts 250°
2026-04-14 10:35 50.04574 8.56048 365 ft 1 kts 250°
2026-04-14 10:35 50.04569 8.56027 366 ft 3 kts 250°
2026-04-14 10:35 50.04560 8.55993 364 ft 4 kts 246°
2026-04-14 10:36 50.04533 8.55961 367 ft 6 kts 202°
2026-04-14 10:36 50.04489 8.55940 367 ft 7 kts 197°
2026-04-14 10:36 50.04436 8.55914 369 ft 9 kts 197°
2026-04-14 10:36 50.04366 8.55916 364 ft 11 kts 160°
2026-04-14 10:37 50.04282 8.55960 362 ft 13 kts 175°
2026-04-14 10:37 50.04200 8.55915 363 ft 12 kts 183°
2026-04-14 10:37 50.04121 8.55956 363 ft 12 kts 160°
2026-04-14 10:37 50.04051 8.55952 364 ft 9 kts 226°
2026-04-14 10:38 50.04026 8.55859 358 ft 9 kts 249°
2026-04-14 10:38 50.04004 8.55767 359 ft 9 kts 250°
2026-04-14 10:38 50.03981 8.55672 356 ft 9 kts 250°
2026-04-14 10:38 50.03959 8.55576 357 ft 9 kts 250°
2026-04-14 10:39 50.03938 8.55489 359 ft 8 kts 250°
2026-04-14 10:39 50.03919 8.55408 361 ft 8 kts 249°
2026-04-14 10:39 50.03899 8.55324 360 ft 9 kts 249°
2026-04-14 10:39 50.03875 8.55224 360 ft 10 kts 250°
2026-04-14 10:40 50.03847 8.55109 359 ft 12 kts 250°
2026-04-14 10:40 50.03816 8.54977 358 ft 14 kts 250°
2026-04-14 10:40 50.03781 8.54831 360 ft 15 kts 249°
2026-04-14 10:40 50.03741 8.54666 355 ft 17 kts 250°
2026-04-14 10:41 50.03699 8.54490 351 ft 18 kts 250°
2026-04-14 10:41 50.03672 8.54377 354 ft 7 kts 249°
2026-04-14 10:41 50.03647 8.54322 355 ft 6 kts 216°
2026-04-14 10:41 50.03608 8.54315 352 ft 6 kts 173°
2026-04-14 10:42 50.03572 8.54333 354 ft 5 kts 160°
2026-04-14 10:42 50.03543 8.54349 351 ft 3 kts 160°
2026-04-14 10:42 50.03538 8.54352 350 ft 0 kts 160°
2026-04-14 10:42 50.03531 8.54356 351 ft 3 kts 160°
2026-04-14 10:43 50.03497 8.54411 355 ft 12 kts 108°
2026-04-14 10:43 50.03531 8.54588 354 ft 30 kts 69°
2026-04-14 10:43 50.03672 8.55174 348 ft 85 kts 70°
2026-04-14 10:43 50.03934 8.56268 362 ft 130 kts 69°
2026-04-14 10:44 50.04305 8.57772 399 ft 164 kts 66°
2026-04-14 10:44 50.04707 8.59374 909 ft 162 kts 66°
2026-04-14 10:44 50.05127 8.61090 1288 ft 176 kts 67°
2026-04-14 10:44 50.05549 8.62937 1683 ft 188 kts 68°
2026-04-14 10:45 50.05987 8.64949 1921 ft 204 kts 68°
2026-04-14 10:45 50.06463 8.67116 2221 ft 219 kts 69°
2026-04-14 10:45 50.06791 8.68622 2549 ft 223 kts 70°
2026-04-14 10:45 50.07840 8.71282 3381 ft 218 kts 34°
2026-04-14 10:46 50.09217 8.72443 3717 ft 232 kts 23°
2026-04-14 10:46 50.10740 8.73452 4144 ft 244 kts 21°
2026-04-14 10:46 50.11810 8.74132 4342 ft 255 kts 21°
2026-04-14 10:46 50.14050 8.75574 5033 ft 265 kts 22°
2026-04-14 10:47 50.15756 8.76715 5675 ft 269 kts 22°
2026-04-14 10:47 50.16902 8.77499 6042 ft 273 kts 22°
2026-04-14 10:47 50.18659 8.78713 6627 ft 278 kts 22°
2026-04-14 10:47 50.20450 8.79925 7178 ft 282 kts 21°
2026-04-14 10:48 50.22280 8.81131 7744 ft 286 kts 21°
2026-04-14 10:48 50.24162 8.82109 8241 ft 290 kts
2026-04-14 10:48 50.26186 8.82211 8738 ft 293 kts 350°
2026-04-14 10:48 50.28105 8.81150 9192 ft 296 kts 325°
2026-04-14 10:49 50.29515 8.78834 9696 ft 297 kts 298°
2026-04-14 10:49 50.30485 8.75953 10203 ft 300 kts 295°
2026-04-14 10:49 50.31393 8.73059 10759 ft 300 kts 294°
2026-04-14 10:49 50.32298 8.70096 11247 ft 303 kts 294°
2026-04-14 10:50 50.33220 8.67118 11743 ft 305 kts 294°
2026-04-14 10:50 50.34157 8.64128 12255 ft 306 kts 294°
2026-04-14 10:50 50.35102 8.61127 12753 ft 308 kts 294°
2026-04-14 10:50 50.36058 8.58100 13251 ft 310 kts 294°
2026-04-14 10:51 50.37022 8.55053 13733 ft 312 kts 294°
2026-04-14 10:51 50.37990 8.51990 14176 ft 315 kts 294°
2026-04-14 10:51 50.38953 8.48940 14596 ft 317 kts 294°
2026-04-14 10:51 50.39939 8.45819 15008 ft 320 kts 294°
2026-04-14 10:52 50.40931 8.42673 15415 ft 323 kts 294°
2026-04-14 10:52 50.41931 8.39497 15817 ft 325 kts 294°
2026-04-14 10:52 50.42936 8.36302 16224 ft 328 kts 294°
2026-04-14 10:52 50.43935 8.33124 16651 ft 330 kts 294°
2026-04-14 10:53 50.44952 8.29882 17075 ft 332 kts 294°
2026-04-14 10:53 50.45975 8.26619 17491 ft 334 kts 295°
2026-04-14 10:53 50.47004 8.23329 17903 ft 336 kts 295°
2026-04-14 10:53 50.48037 8.20023 18339 ft 338 kts 295°
2026-04-14 10:54 50.49076 8.16692 18717 ft 340 kts 295°
2026-04-14 10:54 50.50107 8.13383 19050 ft 343 kts 294°
2026-04-14 10:54 50.51157 8.10011 19413 ft 345 kts 294°
2026-04-14 10:54 50.52214 8.06611 19774 ft 346 kts 294°
2026-04-14 10:55 50.53274 8.03195 20132 ft 348 kts 294°
2026-04-14 10:55 50.54338 7.99762 20493 ft 350 kts 294°
2026-04-14 10:55 50.55407 7.96308 20846 ft 351 kts 294°
2026-04-14 10:55 50.56478 7.92843 21194 ft 353 kts 294°
2026-04-14 10:56 50.57553 7.89362 21570 ft 354 kts 295°
2026-04-14 10:56 50.58631 7.85869 21933 ft 355 kts 295°
2026-04-14 10:56 50.59697 7.82402 22282 ft 357 kts 294°
2026-04-14 10:56 50.60783 7.78867 22612 ft 359 kts 294°
2026-04-14 10:57 50.61871 7.75321 22951 ft 360 kts 294°
2026-04-14 10:57 50.62962 7.71760 23290 ft 361 kts 294°
2026-04-14 10:57 50.64054 7.68190 23633 ft 362 kts 294°
2026-04-14 10:57 50.65151 7.64599 23906 ft 364 kts 294°
2026-04-14 10:58 50.66173 7.61251 24147 ft 366 kts 294°
2026-04-14 10:58 50.67277 7.57627 24408 ft 367 kts 294°
2026-04-14 10:58 50.68382 7.53993 24666 ft 368 kts 294°
2026-04-14 10:58 50.69491 7.50344 24917 ft 370 kts 294°
2026-04-14 10:59 50.70602 7.46680 25196 ft 370 kts 294°
2026-04-14 10:59 50.71714 7.43007 25494 ft 370 kts 294°
2026-04-14 10:59 50.72826 7.39331 25735 ft 372 kts 294°
2026-04-14 10:59 50.73941 7.35640 25979 ft 373 kts 294°
2026-04-14 11:00 50.75061 7.31940 26207 ft 374 kts 295°
2026-04-14 11:00 50.76227 7.28262 26467 ft 375 kts 296°
2026-04-14 11:00 50.77433 7.24586 26690 ft 376 kts 296°
2026-04-14 11:00 50.78641 7.20948 26913 ft 378 kts 296°
2026-04-14 11:01 50.79863 7.17262 27138 ft 379 kts 296°
2026-04-14 11:01 50.81083 7.13558 27354 ft 380 kts 296°
2026-04-14 11:01 50.82302 7.09829 27573 ft 381 kts 296°
2026-04-14 11:01 50.83515 7.06095 27790 ft 382 kts 296°
2026-04-14 11:02 50.84728 7.02347 28034 ft 382 kts 297°
2026-04-14 11:02 50.85930 6.98623 28301 ft 382 kts 297°
2026-04-14 11:02 50.87143 6.94866 28483 ft 384 kts 297°
2026-04-14 11:02 50.88364 6.91093 28677 ft 385 kts 297°
2026-04-14 11:03 50.89583 6.87299 28865 ft 386 kts 297°
2026-04-14 11:03 50.90801 6.83500 29058 ft 387 kts 297°
2026-04-14 11:03 50.92021 6.79684 29238 ft 388 kts 297°
2026-04-14 11:03 50.93230 6.75901 29470 ft 388 kts 297°
2026-04-14 11:04 50.94450 6.72080 29731 ft 387 kts 297°
2026-04-14 11:04 50.95666 6.68269 29980 ft 387 kts 297°
2026-04-14 11:04 50.96882 6.64451 30216 ft 386 kts 297°
2026-04-14 11:04 50.98093 6.60643 30396 ft 385 kts 297°
2026-04-14 11:05 50.99294 6.56863 30724 ft 381 kts 297°
2026-04-14 11:05 51.00470 6.53155 30946 ft 380 kts 297°
2026-04-14 11:05 51.01663 6.49388 31089 ft 380 kts 297°
2026-04-14 11:05 51.02852 6.45627 31234 ft 380 kts 297°
2026-04-14 11:06 51.04036 6.41877 31391 ft 380 kts 297°
2026-04-14 11:06 51.05218 6.38126 31575 ft 379 kts 297°
2026-04-14 11:06 51.06389 6.34407 31734 ft 379 kts 297°
2026-04-14 11:06 51.07567 6.30658 31881 ft 379 kts 297°
2026-04-14 11:07 51.08744 6.26904 32021 ft 378 kts 298°
2026-04-14 11:07 51.09908 6.23191 32157 ft 378 kts 298°
2026-04-14 11:07 51.11087 6.19423 32214 ft 380 kts 298°
2026-04-14 11:08 51.13417 6.11801 32210 ft 386 kts 294°
2026-04-14 11:08 51.15066 6.03617 32211 ft 395 kts 288°
2026-04-14 11:09 51.16485 5.95066 32211 ft 402 kts 287°
2026-04-14 11:09 51.17880 5.86318 32210 ft 410 kts 287°
2026-04-14 11:10 51.20381 5.73133 32205 ft 420 kts 292°
2026-04-14 11:10 51.22424 5.64354 32203 ft 427 kts 292°
2026-04-14 11:11 51.24462 5.55355 32196 ft 431 kts 292°
2026-04-14 11:11 51.26425 5.46377 32197 ft 430 kts 291°
2026-04-14 11:12 51.28371 5.37345 32194 ft 429 kts 291°
2026-04-14 11:12 51.30303 5.28342 32195 ft 429 kts 291°
2026-04-14 11:13 51.32239 5.19292 32194 ft 428 kts 291°
2026-04-14 11:13 51.34147 5.10333 32204 ft 427 kts 291°
2026-04-14 11:14 51.36062 5.01307 32203 ft 427 kts 291°
2026-04-14 11:14 51.37972 4.92271 32205 ft 427 kts 291°
2026-04-14 11:15 51.39861 4.83288 32207 ft 427 kts 291°
2026-04-14 11:15 51.41754 4.74239 32209 ft 426 kts 292°
2026-04-14 11:16 51.43618 4.65292 32185 ft 424 kts 291°
2026-04-14 11:16 51.45471 4.56364 32184 ft 424 kts 291°
2026-04-14 11:17 51.47327 4.47384 32188 ft 424 kts 291°
2026-04-14 11:17 51.49178 4.38380 32186 ft 424 kts 291°
2026-04-14 11:18 51.51007 4.29447 32175 ft 423 kts 291°
2026-04-14 11:18 51.52842 4.20439 32187 ft 423 kts 291°
2026-04-14 11:19 51.54667 4.11445 32176 ft 423 kts 291°
2026-04-14 11:19 51.56478 4.02477 32196 ft 423 kts 291°
2026-04-14 11:20 51.58292 3.93453 32190 ft 423 kts 291°
2026-04-14 11:20 51.60085 3.84489 32177 ft 423 kts 291°
2026-04-14 11:21 51.61879 3.75478 32193 ft 421 kts 291°
2026-04-14 11:21 51.63649 3.66547 32197 ft 420 kts 291°
2026-04-14 11:22 51.65424 3.57556 32202 ft 420 kts 291°
2026-04-14 11:22 51.67181 3.48612 32193 ft 420 kts 291°
2026-04-14 11:23 51.68941 3.39605 32200 ft 420 kts 291°
2026-04-14 11:23 51.70683 3.30652 32201 ft 419 kts 291°
2026-04-14 11:24 51.72343 3.21629 32205 ft 420 kts 286°
2026-04-14 11:24 51.72779 3.12152 32208 ft 429 kts 270°
2026-04-14 11:25 51.72108 3.02590 32206 ft 432 kts 267°
2026-04-14 11:25 51.71240 2.92966 32206 ft 433 kts 266°
2026-04-14 11:26 51.70361 2.83394 32200 ft 432 kts 267°
2026-04-14 11:26 51.69497 2.73803 32200 ft 431 kts 267°
2026-04-14 11:27 51.68640 2.64216 32200 ft 431 kts 267°
2026-04-14 11:27 51.67788 2.54700 32200 ft 431 kts 267°
2026-04-14 11:28 51.66926 2.45108 32200 ft 431 kts 267°
2026-04-14 11:28 51.66054 2.35598 32199 ft 430 kts 267°
2026-04-14 11:29 51.65165 2.26054 32192 ft 429 kts 267°
2026-04-14 11:29 51.64281 2.16597 32192 ft 429 kts 266°
2026-04-14 11:30 51.63389 2.07099 32189 ft 429 kts 267°
2026-04-14 11:30 51.62508 1.97576 32189 ft 429 kts 267°
2026-04-14 11:31 51.61636 1.88133 32179 ft 428 kts 267°
2026-04-14 11:31 51.60743 1.78677 32179 ft 426 kts 267°
2026-04-14 11:32 51.59851 1.69305 32178 ft 426 kts 267°
2026-04-14 11:32 51.59243 1.59866 32185 ft 419 kts 276°
2026-04-14 11:33 51.59502 1.50529 32176 ft 417 kts 278°
2026-04-14 11:34 51.60112 1.36644 32172 ft 414 kts 279°
2026-04-14 11:34 51.60512 1.27464 32157 ft 413 kts 279°
2026-04-14 11:35 51.60837 1.19780 32158 ft 413 kts 279°
2026-04-14 11:35 51.61266 1.09027 32143 ft 413 kts 279°
2026-04-14 11:36 51.61568 1.01286 32141 ft 413 kts 279°
2026-04-14 11:36 51.61921 0.92095 32125 ft 412 kts 279°
2026-04-14 11:37 51.62273 0.82902 32127 ft 411 kts 279°
2026-04-14 11:37 51.62613 0.73707 32128 ft 411 kts 279°
2026-04-14 11:38 51.62947 0.64575 32129 ft 411 kts 279°
2026-04-14 11:38 51.63277 0.55383 32127 ft 411 kts 279°
2026-04-14 11:39 51.63589 0.46241 32126 ft 411 kts 279°
2026-04-14 11:39 51.63897 0.37039 32125 ft 411 kts 279°
2026-04-14 11:40 51.64201 0.27831 32125 ft 411 kts 278°
2026-04-14 11:40 51.64486 0.18623 32126 ft 412 kts 277°
2026-04-14 11:41 51.63983 0.09376 32123 ft 420 kts 268°
2026-04-14 11:41 51.63034 0.00052 32127 ft 422 kts 267°
2026-04-14 11:42 51.62074 -0.09214 32100 ft 419 kts 271°
2026-04-14 11:42 51.62121 -0.18478 32103 ft 411 kts 279°
2026-04-14 11:43 51.62630 -0.27645 32103 ft 410 kts 281°
2026-04-14 11:43 51.63209 -0.36744 32102 ft 410 kts 281°
2026-04-14 11:44 51.63780 -0.45906 32101 ft 411 kts 281°
2026-04-14 11:44 51.64326 -0.55030 32104 ft 411 kts 281°
2026-04-14 11:45 51.64861 -0.64226 32102 ft 411 kts 281°
2026-04-14 11:45 51.65385 -0.73350 32101 ft 411 kts 280°
2026-04-14 11:46 51.65905 -0.82538 32089 ft 411 kts 280°
2026-04-14 11:46 51.66418 -0.91706 32085 ft 411 kts 280°
2026-04-14 11:47 51.66923 -1.00851 32070 ft 411 kts 280°
2026-04-14 11:47 51.67424 -1.10056 32076 ft 412 kts 280°
2026-04-14 11:48 51.67915 -1.19237 32077 ft 412 kts 280°
2026-04-14 11:48 51.68401 -1.28453 32069 ft 412 kts 279°
2026-04-14 11:49 51.68877 -1.37625 32071 ft 412 kts 279°
2026-04-14 11:49 51.69350 -1.46856 32071 ft 412 kts 279°
2026-04-14 11:50 51.69815 -1.56094 32076 ft 412 kts 279°
2026-04-14 11:50 51.70390 -1.65262 32072 ft 409 kts 284°
2026-04-14 11:51 51.72119 -1.73851 32071 ft 403 kts 296°
2026-04-14 11:51 51.73305 -1.77950 32074 ft 403 kts 298°
2026-04-14 11:51 51.75807 -1.86064 32071 ft 403 kts 298°
2026-04-14 11:52 51.78331 -1.94120 32030 ft 404 kts 298°
2026-04-14 11:52 51.80882 -2.02214 32048 ft 402 kts 301°
2026-04-14 11:53 51.83754 -2.09921 32047 ft 402 kts 302°
2026-04-14 11:53 51.86701 -2.17604 32047 ft 402 kts 302°
2026-04-14 11:54 51.89664 -2.25300 32047 ft 402 kts 302°
2026-04-14 11:54 51.92602 -2.32962 32047 ft 402 kts 302°
2026-04-14 11:55 51.95548 -2.40684 32042 ft 402 kts 302°
2026-04-14 11:55 51.98484 -2.48408 32036 ft 402 kts 301°
2026-04-14 11:56 52.01396 -2.56092 32027 ft 401 kts 301°
2026-04-14 11:56 52.04318 -2.63824 32020 ft 401 kts 301°
2026-04-14 11:57 52.07236 -2.71568 32017 ft 401 kts 301°
2026-04-14 11:57 52.10129 -2.79267 32013 ft 401 kts 301°
2026-04-14 11:58 52.13034 -2.87026 32013 ft 401 kts 301°
2026-04-14 11:58 52.15940 -2.94809 32006 ft 401 kts 301°
2026-04-14 11:59 52.18823 -3.02560 31999 ft 401 kts 300°
2026-04-14 11:59 52.21713 -3.10347 32002 ft 401 kts 300°
2026-04-14 12:00 52.24577 -3.18084 32020 ft 401 kts 300°
2026-04-14 12:00 52.27455 -3.25897 31992 ft 399 kts 300°
2026-04-14 12:01 52.30302 -3.33635 31994 ft 399 kts 300°
2026-04-14 12:01 52.33160 -3.41428 31981 ft 400 kts 300°
2026-04-14 12:02 52.36018 -3.49252 31978 ft 400 kts 299°
2026-04-14 12:02 52.38870 -3.57087 31981 ft 400 kts 299°
2026-04-14 12:03 52.41703 -3.64887 31966 ft 400 kts 299°
2026-04-14 12:03 52.44551 -3.72746 31969 ft 400 kts 299°
2026-04-14 12:04 52.47369 -3.80557 31969 ft 400 kts 299°
2026-04-14 12:04 52.50188 -3.88390 31954 ft 399 kts 299°
2026-04-14 12:05 52.53010 -3.96261 31955 ft 399 kts 299°
2026-04-14 12:05 52.55827 -4.04143 31933 ft 400 kts 298°
2026-04-14 12:06 52.58633 -4.12017 31935 ft 401 kts 298°
2026-04-14 12:06 52.61453 -4.19950 31936 ft 401 kts 298°
2026-04-14 12:07 52.64253 -4.27852 31926 ft 401 kts 298°
2026-04-14 12:07 52.67063 -4.35812 31923 ft 401 kts 298°
2026-04-14 12:08 52.69848 -4.43724 31918 ft 400 kts 298°
2026-04-14 12:08 52.72637 -4.51674 31912 ft 400 kts 298°
2026-04-14 12:09 52.75406 -4.59598 31911 ft 401 kts 297°
2026-04-14 12:09 52.78196 -4.67600 31916 ft 401 kts 297°
2026-04-14 12:10 52.80978 -4.75603 31923 ft 401 kts 297°
2026-04-14 12:10 52.83738 -4.83573 31913 ft 401 kts 297°
2026-04-14 12:11 52.86512 -4.91609 31915 ft 401 kts 297°
2026-04-14 12:11 52.89260 -4.99594 31912 ft 401 kts 297°
2026-04-14 12:12 52.92023 -5.07648 31904 ft 401 kts 296°
2026-04-14 12:12 52.94779 -5.15709 31899 ft 401 kts 296°
2026-04-14 12:13 52.97516 -5.23742 31900 ft 401 kts 296°
2026-04-14 12:13 53.00260 -5.31819 31901 ft 401 kts 296°
2026-04-14 12:14 53.02989 -5.39879 31901 ft 401 kts 296°
2026-04-14 12:14 53.05728 -5.47996 31898 ft 401 kts 296°
2026-04-14 12:15 53.08469 -5.56052 31882 ft 402 kts 296°
2026-04-14 12:15 53.11259 -5.64077 31884 ft 402 kts 297°
2026-04-14 12:16 53.14060 -5.72148 31875 ft 401 kts 296°
2026-04-14 12:16 53.16825 -5.80170 31873 ft 400 kts 296°
2026-04-14 12:17 53.19596 -5.88254 31867 ft 401 kts 296°
2026-04-14 12:17 53.22342 -5.96296 31847 ft 401 kts 296°
2026-04-14 12:18 53.25105 -6.04410 31842 ft 401 kts 296°
2026-04-14 12:18 53.27857 -6.12518 31837 ft 400 kts 296°
2026-04-14 12:19 53.30584 -6.20584 31830 ft 401 kts 295°
2026-04-14 12:19 53.33331 -6.28735 31830 ft 402 kts 295°
2026-04-14 12:20 53.36076 -6.36902 31828 ft 402 kts 295°
2026-04-14 12:20 53.38804 -6.45044 31838 ft 402 kts 295°
2026-04-14 12:21 53.41554 -6.53284 31957 ft 407 kts 295°
2026-04-14 12:21 53.44315 -6.61587 32148 ft 410 kts 295°
2026-04-14 12:22 53.45706 -6.65778 32299 ft 410 kts 295°
2026-04-14 12:22 53.47093 -6.69962 32476 ft 410 kts 295°
2026-04-14 12:22 53.48011 -6.72734 32603 ft 410 kts 294°
2026-04-14 12:22 53.49396 -6.76924 32728 ft 411 kts 294°
2026-04-14 12:23 53.51237 -6.82508 32917 ft 411 kts 294°
2026-04-14 12:23 53.52174 -6.85356 33020 ft 411 kts 294°
2026-04-14 12:23 53.53537 -6.89502 33212 ft 410 kts 294°
2026-04-14 12:23 53.54914 -6.93696 33467 ft 408 kts 294°
2026-04-14 12:24 53.56282 -6.97867 33749 ft 405 kts 294°
2026-04-14 12:24 53.57632 -7.01991 33790 ft 398 kts 294°
2026-04-14 12:24 53.60274 -7.10084 33793 ft 392 kts 294°
2026-04-14 12:25 53.62878 -7.18107 33792 ft 392 kts 294°
2026-04-14 12:25 53.65499 -7.26205 33789 ft 392 kts 294°
2026-04-14 12:26 53.68096 -7.34258 33780 ft 394 kts 293°
2026-04-14 12:26 53.70726 -7.42435 33778 ft 396 kts 293°
2026-04-14 12:27 53.73354 -7.50619 33778 ft 396 kts 293°
2026-04-14 12:27 53.75958 -7.58762 33797 ft 396 kts 293°
2026-04-14 12:28 53.78567 -7.66942 33766 ft 393 kts 292°
2026-04-14 12:28 53.81141 -7.75046 33765 ft 393 kts 292°
2026-04-14 12:29 53.83722 -7.83206 33754 ft 393 kts 292°
2026-04-14 12:29 53.86302 -7.91389 33756 ft 394 kts 292°
2026-04-14 12:30 53.88893 -7.99638 33746 ft 397 kts 292°
2026-04-14 12:30 53.91471 -8.07864 33745 ft 397 kts 292°
2026-04-14 12:31 53.94058 -8.16149 33744 ft 397 kts 292°
2026-04-14 12:31 53.96644 -8.24460 33764 ft 397 kts 291°
2026-04-14 12:32 53.99289 -8.32670 33729 ft 396 kts 294°
2026-04-14 12:32 54.02089 -8.40680 33733 ft 395 kts 294°
2026-04-14 12:33 54.04906 -8.48739 33722 ft 396 kts 293°
2026-04-14 12:33 54.07679 -8.56807 33719 ft 397 kts 293°
2026-04-14 12:34 54.10459 -8.64964 33719 ft 397 kts 293°
2026-04-14 12:34 54.13231 -8.73138 33717 ft 397 kts 293°
2026-04-14 12:35 54.15998 -8.81319 33739 ft 397 kts 293°
2026-04-14 12:35 54.18739 -8.89451 33741 ft 396 kts 292°
2026-04-14 12:36 54.21476 -8.97590 33716 ft 393 kts 292°
2026-04-14 12:36 54.24175 -9.05651 33747 ft 393 kts 292°
2026-04-14 12:37 54.26889 -9.13790 33715 ft 392 kts 291°
2026-04-14 12:37 54.29576 -9.21870 33706 ft 392 kts 291°
2026-04-14 12:38 54.33618 -9.34073 33704 ft 392 kts 291°
2026-04-14 12:39 54.36291 -9.42174 33704 ft 392 kts 291°
2026-04-14 12:39 54.38972 -9.50329 33720 ft 392 kts 291°
2026-04-14 12:40 54.41643 -9.58476 33697 ft 391 kts 291°
2026-04-14 12:40 54.44294 -9.66595 33726 ft 391 kts 291°
2026-04-14 12:41 54.46958 -9.74794 33708 ft 395 kts 290°
2026-04-14 12:41 54.49639 -9.83064 33703 ft 396 kts 290°
2026-04-14 12:42 54.52307 -9.91308 33696 ft 396 kts 290°
2026-04-14 12:42 54.54985 -9.99616 33700 ft 396 kts 290°
2026-04-14 12:43 54.57656 -10.07934 33690 ft 396 kts 290°
2026-04-14 12:43 54.60311 -10.16232 33684 ft 397 kts 289°
2026-04-14 12:44 54.62986 -10.24627 33679 ft 398 kts 289°
2026-04-14 12:44 54.65640 -10.32983 33686 ft 400 kts 289°
2026-04-14 12:45 54.69664 -10.45713 33675 ft 404 kts 289°
2026-04-14 12:45 54.72361 -10.54263 33672 ft 404 kts 289°
2026-04-14 12:46 54.75050 -10.62824 33675 ft 404 kts 289°
2026-04-14 12:46 54.77713 -10.71338 33661 ft 404 kts 289°
2026-04-14 12:47 54.80390 -10.79932 33660 ft 405 kts 288°
2026-04-14 12:47 54.83051 -10.88507 33658 ft 406 kts 288°
2026-04-14 12:48 54.85732 -10.97174 33653 ft 408 kts 287°
2026-04-14 12:48 54.88420 -11.05907 33642 ft 410 kts 287°
2026-04-14 12:49 54.91095 -11.14610 33644 ft 411 kts 287°
2026-04-14 12:49 54.93783 -11.23389 33644 ft 411 kts 287°
2026-04-14 12:50 54.97805 -11.36588 33639 ft 410 kts 287°
2026-04-14 12:51 55.00457 -11.45335 33627 ft 411 kts 286°
2026-04-14 12:51 55.03125 -11.54172 33616 ft 411 kts 286°
2026-04-14 12:52 55.05774 -11.62975 33626 ft 411 kts 286°
2026-04-14 12:52 55.08428 -11.71827 33614 ft 411 kts 286°
2026-04-14 12:53 55.11063 -11.80648 33607 ft 411 kts 286°
2026-04-14 12:53 55.13707 -11.89533 33608 ft 411 kts 286°
2026-04-14 12:54 55.16338 -11.98408 33598 ft 411 kts 286°
2026-04-14 12:54 55.18954 -12.07266 33624 ft 411 kts 286°
2026-04-14 12:55 55.21573 -12.16164 33592 ft 410 kts 286°
2026-04-14 12:55 55.24183 -12.25071 33592 ft 411 kts 285°
2026-04-14 12:56 55.26773 -12.33952 33579 ft 412 kts 285°
2026-04-14 12:56 55.29381 -12.42913 33579 ft 412 kts 285°
2026-04-14 12:57 55.31984 -12.51892 33570 ft 412 kts 285°
2026-04-14 12:57 55.34579 -12.60883 33566 ft 412 kts 285°
2026-04-14 12:58 55.37166 -12.69881 33568 ft 412 kts 285°
2026-04-14 12:58 55.39730 -12.78831 33556 ft 412 kts 285°
2026-04-14 12:59 55.42307 -12.87863 33566 ft 413 kts 284°
2026-04-14 12:59 55.44871 -12.96896 33557 ft 415 kts 284°
2026-04-14 13:00 55.47457 -13.06029 33538 ft 415 kts 284°
2026-04-14 13:00 55.50036 -13.15170 33542 ft 416 kts 284°
2026-04-14 13:01 55.52592 -13.24264 33543 ft 415 kts 284°
2026-04-14 13:01 55.55156 -13.33427 33530 ft 415 kts 284°
2026-04-14 13:02 55.57695 -13.42540 33527 ft 415 kts 284°
2026-04-14 13:02 55.60247 -13.51736 33565 ft 416 kts 284°
2026-04-14 13:03 55.62808 -13.61017 33518 ft 422 kts 284°
2026-04-14 13:03 55.65372 -13.70339 33509 ft 424 kts 284°
2026-04-14 13:04 55.67957 -13.79745 33505 ft 424 kts 284°
2026-04-14 13:04 55.70531 -13.89161 33503 ft 424 kts 284°
2026-04-14 13:05 55.73079 -13.98528 33499 ft 423 kts 284°
2026-04-14 13:05 55.75636 -14.07967 33487 ft 424 kts 284°
2026-04-14 13:06 55.78186 -14.17425 33486 ft 424 kts 284°
2026-04-14 13:06 55.80723 -14.26889 33485 ft 429 kts 284°
2026-04-14 13:07 55.83301 -14.36539 33473 ft 432 kts 284°
2026-04-14 13:07 55.85885 -14.46223 33473 ft 431 kts 284°
2026-04-14 13:08 55.88440 -14.55844 33466 ft 431 kts 284°
2026-04-14 13:08 55.90567 -14.63895 33457 ft 431 kts 284°
2026-04-14 13:09 55.93126 -14.73620 33456 ft 431 kts 284°
2026-04-14 13:09 55.95655 -14.83271 33463 ft 432 kts 284°
2026-04-14 13:10 55.98206 -14.93057 33449 ft 436 kts 284°
2026-04-14 13:10 56.00749 -15.02905 33440 ft 438 kts 283°
2026-04-14 13:11 56.03053 -15.12954 33436 ft 435 kts 281°
2026-04-14 13:11 56.05227 -15.23028 33428 ft 439 kts 281°
2026-04-14 13:12 56.07471 -15.33326 33425 ft 446 kts 281°
2026-04-14 13:12 56.09756 -15.43665 33411 ft 448 kts 281°
2026-04-14 13:13 56.12057 -15.54039 33412 ft 446 kts 281°
2026-04-14 13:13 56.14348 -15.64471 33413 ft 452 kts 282°
2026-04-14 13:14 56.16639 -15.74984 33397 ft 457 kts 282°
2026-04-14 13:14 56.18956 -15.85630 33399 ft 457 kts 282°
2026-04-14 13:15 56.21258 -15.96258 33392 ft 456 kts 282°
2026-04-14 13:15 56.23539 -16.06862 33391 ft 456 kts 282°
2026-04-14 13:16 56.25823 -16.17537 33384 ft 456 kts 282°
2026-04-14 13:16 56.28077 -16.28132 33391 ft 458 kts 282°
2026-04-14 13:17 56.30362 -16.38948 33382 ft 463 kts 282°
2026-04-14 13:17 56.32662 -16.49866 33377 ft 466 kts 282°
2026-04-14 13:18 56.34940 -16.60730 33368 ft 466 kts 282°
2026-04-14 13:18 56.37225 -16.71683 33364 ft 465 kts 282°
2026-04-14 13:19 56.39483 -16.82578 33361 ft 465 kts 282°
2026-04-14 13:19 56.41740 -16.93534 33418 ft 465 kts 282°
2026-04-14 13:20 56.44002 -17.04586 33355 ft 471 kts 282°
2026-04-14 13:20 56.46274 -17.15741 33359 ft 473 kts 282°
2026-04-14 13:21 56.48518 -17.26876 33348 ft 473 kts 279°
2026-04-14 13:21 56.50662 -17.38075 33340 ft 473 kts 279°
2026-04-14 13:22 56.52849 -17.49340 33337 ft 474 kts 280°
2026-04-14 13:22 56.55079 -17.60611 33337 ft 474 kts 280°
2026-04-14 13:23 56.57304 -17.71827 33327 ft 478 kts 280°
2026-04-14 13:23 56.59556 -17.83255 33322 ft 481 kts 280°
2026-04-14 13:24 56.61791 -17.94649 33327 ft 481 kts 280°
2026-04-14 13:24 56.65133 -18.11827 33330 ft 482 kts 280°
2026-04-14 13:25 56.67358 -18.23357 33316 ft 482 kts 280°
2026-04-14 13:26 56.71758 -18.46364 33308 ft 482 kts 280°
2026-04-14 13:26 56.73939 -18.57870 33317 ft 482 kts 280°
2026-04-14 13:27 56.76121 -18.69450 33290 ft 482 kts 280°
2026-04-14 13:27 56.78279 -18.80974 33302 ft 482 kts 280°
2026-04-14 13:28 56.80431 -18.92537 33298 ft 483 kts 280°
2026-04-14 13:28 56.82580 -19.04161 33287 ft 483 kts 279°
2026-04-14 13:29 56.84730 -19.15860 33285 ft 486 kts 280°
2026-04-14 13:29 56.86869 -19.27582 33286 ft 489 kts 280°
2026-04-14 13:30 56.89022 -19.39429 33273 ft 489 kts 280°
2026-04-14 13:30 56.91146 -19.51196 33273 ft 488 kts 279°
2026-04-14 13:31 56.93268 -19.63030 33270 ft 488 kts 280°
2026-04-14 13:31 56.95369 -19.74830 33264 ft 489 kts 279°
2026-04-14 13:32 56.97463 -19.86664 33269 ft 492 kts 280°
2026-04-14 13:32 56.99570 -19.98658 33256 ft 493 kts 280°
2026-04-14 13:33 57.01506 -20.10707 33255 ft 490 kts 276°
2026-04-14 13:33 57.03146 -20.22817 33250 ft 489 kts 276°
2026-04-14 13:34 57.05606 -20.40990 33252 ft 490 kts 276°
2026-04-14 13:35 57.07288 -20.53149 33254 ft 491 kts 277°
2026-04-14 13:35 57.08966 -20.65303 33241 ft 493 kts 277°
2026-04-14 13:36 57.10649 -20.77577 33229 ft 493 kts 277°
2026-04-14 13:36 57.12305 -20.89760 33228 ft 493 kts 276°
2026-04-14 13:37 57.13956 -21.02023 33229 ft 493 kts 276°
2026-04-14 13:37 57.15587 -21.14241 33226 ft 493 kts 276°
2026-04-14 13:38 57.17217 -21.26548 33234 ft 493 kts 277°
2026-04-14 13:38 57.18827 -21.38814 33214 ft 494 kts 276°
2026-04-14 13:39 57.20434 -21.51152 33218 ft 495 kts 277°
2026-04-14 13:39 57.22035 -21.63542 33214 ft 495 kts 277°
2026-04-14 13:40 57.23624 -21.75946 33210 ft 495 kts 277°
2026-04-14 13:40 57.25191 -21.88283 33206 ft 495 kts 276°
2026-04-14 13:41 57.26745 -22.00634 33201 ft 496 kts 277°
2026-04-14 13:41 57.28299 -22.13089 33200 ft 496 kts 277°
2026-04-14 13:42 57.29841 -22.25552 33195 ft 496 kts 277°
2026-04-14 13:42 57.31372 -22.38030 33184 ft 496 kts 276°
2026-04-14 13:43 57.32877 -22.50409 33191 ft 497 kts 277°
2026-04-14 13:43 57.34383 -22.62921 33186 ft 497 kts 277°
2026-04-14 13:44 57.35868 -22.75363 33185 ft 497 kts 277°
2026-04-14 13:44 57.37355 -22.87933 33183 ft 498 kts 277°
2026-04-14 13:45 57.38817 -23.00410 33178 ft 497 kts 277°
2026-04-14 13:45 57.40279 -23.13005 33175 ft 497 kts 277°
2026-04-14 13:46 57.41714 -23.25483 33174 ft 497 kts 277°
2026-04-14 13:46 57.43148 -23.38071 33189 ft 498 kts 277°
2026-04-14 13:47 57.44576 -23.50731 33164 ft 500 kts 277°
2026-04-14 13:47 57.45982 -23.63313 33164 ft 500 kts 277°
2026-04-14 13:48 57.47387 -23.76005 33156 ft 500 kts 277°
2026-04-14 13:48 57.48770 -23.88624 33152 ft 500 kts 277°
2026-04-14 13:49 57.50150 -24.01345 33148 ft 500 kts 277°
2026-04-14 13:49 57.51507 -24.13982 33157 ft 500 kts 277°
2026-04-14 13:50 57.52860 -24.26707 33142 ft 500 kts 277°
2026-04-14 13:50 57.54202 -24.39456 33149 ft 503 kts 277°
2026-04-14 13:51 57.55528 -24.52192 33143 ft 503 kts 276°
2026-04-14 13:51 57.56851 -24.65025 33129 ft 504 kts 276°
2026-04-14 13:52 57.58154 -24.77801 33136 ft 504 kts 276°
2026-04-14 13:52 57.59449 -24.90631 33152 ft 504 kts 277°
2026-04-14 13:53 57.60736 -25.03533 33143 ft 507 kts 276°
2026-04-14 13:53 57.62005 -25.16392 33138 ft 506 kts 276°
2026-04-14 13:54 57.63267 -25.29300 33143 ft 505 kts 276°
2026-04-14 13:54 57.64516 -25.42241 33149 ft 507 kts 276°
2026-04-14 13:55 57.65753 -25.55195 33145 ft 505 kts 276°
2026-04-14 13:55 57.66973 -25.68123 33161 ft 506 kts 276°
2026-04-14 13:56 57.68179 -25.81051 33159 ft 506 kts 275°
2026-04-14 13:56 57.69377 -25.94037 33156 ft 504 kts 275°
2026-04-14 13:57 57.70551 -26.06920 33175 ft 506 kts 275°
2026-04-14 13:57 57.71527 -26.17753 33175 ft 506 kts 276°
2026-04-14 13:58 57.72686 -26.30736 33169 ft 503 kts 275°
2026-04-14 13:58 57.73818 -26.43606 33193 ft 504 kts 275°
2026-04-14 13:59 57.74946 -26.56599 33192 ft 502 kts 275°
2026-04-14 13:59 57.76049 -26.69421 33193 ft 501 kts 274°
2026-04-14 14:00 57.77147 -26.82360 33245 ft 503 kts 275°
2026-04-14 14:00 57.78227 -26.95247 33212 ft 500 kts 274°
2026-04-14 14:01 57.79295 -27.08130 33225 ft 501 kts 275°
2026-04-14 14:01 57.80354 -27.21132 33221 ft 504 kts 276°
2026-04-14 14:02 57.81392 -27.33991 33226 ft 498 kts 276°
2026-04-14 14:02 57.82422 -27.46904 33232 ft 501 kts 275°
2026-04-14 14:03 57.83442 -27.59907 33235 ft 501 kts 275°
2026-04-14 14:03 57.84436 -27.72741 33243 ft 499 kts 275°
2026-04-14 14:04 57.85426 -27.85722 33254 ft 503 kts 275°
2026-04-14 14:04 57.86397 -27.98609 33240 ft 495 kts 275°
2026-04-14 14:05 57.87356 -28.11510 33265 ft 500 kts 275°
2026-04-14 14:05 57.88299 -28.24414 33263 ft 501 kts 276°
2026-04-14 14:06 57.89231 -28.37327 33269 ft 496 kts 275°
2026-04-14 14:06 57.90144 -28.50149 33284 ft 500 kts 275°
2026-04-14 14:07 57.91050 -28.63101 33283 ft 496 kts 275°
2026-04-14 14:07 57.91936 -28.75930 33281 ft 499 kts 275°
2026-04-14 14:08 57.92818 -28.88907 33307 ft 499 kts 275°
2026-04-14 14:08 57.93683 -29.01825 33304 ft 497 kts 275°
2026-04-14 14:09 57.94538 -29.14817 33298 ft 499 kts 275°
2026-04-14 14:09 57.95375 -29.27690 33308 ft 494 kts 274°
2026-04-14 14:10 57.96198 -29.40576 33322 ft 496 kts 274°
2026-04-14 14:10 57.97004 -29.53459 33314 ft 496 kts 274°
2026-04-14 14:11 57.97799 -29.66360 33337 ft 494 kts 274°
2026-04-14 14:11 57.98579 -29.79223 33337 ft 498 kts 274°
2026-04-14 14:12 57.99347 -29.92121 33330 ft 492 kts 274°
2026-04-14 14:12 58.00089 -30.05040 33356 ft 496 kts 273°
2026-04-14 14:13 58.00595 -30.18009 33345 ft 492 kts 271°
2026-04-14 14:13 58.01015 -30.30818 33361 ft 494 kts 271°
2026-04-14 14:14 58.01457 -30.43832 33359 ft 496 kts 271°
2026-04-14 14:14 58.01911 -30.56788 33367 ft 494 kts 271°
2026-04-14 14:15 58.02357 -30.69697 33382 ft 497 kts 271°
2026-04-14 14:15 58.02790 -30.82632 33364 ft 493 kts 271°
2026-04-14 14:16 58.03208 -30.95602 33384 ft 496 kts 271°
2026-04-14 14:16 58.03613 -31.08546 33378 ft 492 kts 271°
2026-04-14 14:17 58.04193 -31.27923 33392 ft 495 kts 271°
2026-04-14 14:17 58.04564 -31.40843 33388 ft 492 kts 271°
2026-04-14 14:18 58.04921 -31.53766 33395 ft 492 kts 271°
2026-04-14 14:18 58.05264 -31.66630 33386 ft 491 kts 271°
2026-04-14 14:19 58.05593 -31.79445 33416 ft 492 kts 271°
2026-04-14 14:19 58.05911 -31.92327 33397 ft 490 kts 271°
2026-04-14 14:20 58.06216 -32.05217 33417 ft 489 kts 271°
2026-04-14 14:20 58.06505 -32.17958 33425 ft 487 kts 270°
2026-04-14 14:21 58.06783 -32.30823 33418 ft 490 kts 270°
2026-04-14 14:21 58.07046 -32.43565 33432 ft 485 kts 270°
2026-04-14 14:22 58.07297 -32.56380 33425 ft 488 kts 270°
2026-04-14 14:22 58.07532 -32.69060 33444 ft 484 kts 270°
2026-04-14 14:23 58.07757 -32.81812 33436 ft 488 kts 270°
2026-04-14 14:23 58.07969 -32.94616 33440 ft 485 kts 270°
2026-04-14 14:24 58.08170 -33.07437 33454 ft 489 kts 269°
2026-04-14 14:24 58.08355 -33.20175 33450 ft 485 kts 269°
2026-04-14 14:25 58.08529 -33.32990 33460 ft 488 kts 269°
2026-04-14 14:25 58.08688 -33.45715 33457 ft 483 kts 269°
2026-04-14 14:26 58.08836 -33.58428 33470 ft 485 kts 269°
2026-04-14 14:26 58.08970 -33.71146 33464 ft 482 kts 269°
2026-04-14 14:27 58.09092 -33.83788 33484 ft 485 kts 269°
2026-04-14 14:27 58.09201 -33.96485 33477 ft 478 kts 269°
2026-04-14 14:28 58.09297 -34.09024 33486 ft 479 kts 269°
2026-04-14 14:28 58.09380 -34.21616 33482 ft 476 kts 268°
2026-04-14 14:29 58.09451 -34.34114 33501 ft 479 kts 269°
2026-04-14 14:29 58.09509 -34.46730 33487 ft 477 kts 268°
2026-04-14 14:30 58.09555 -34.59255 33514 ft 477 kts 269°
2026-04-14 14:30 58.09588 -34.71687 33515 ft 473 kts 268°
2026-04-14 14:31 58.09610 -34.84151 33518 ft 474 kts 268°
2026-04-14 14:31 58.09620 -34.96550 33514 ft 472 kts 268°
2026-04-14 14:32 58.09617 -35.09010 33525 ft 474 kts 268°
2026-04-14 14:32 58.09602 -35.21426 33533 ft 472 kts 268°
2026-04-14 14:33 58.09576 -35.33889 33535 ft 475 kts 268°
2026-04-14 14:33 58.09535 -35.46290 33533 ft 471 kts 268°
2026-04-14 14:34 58.09455 -35.64921 33558 ft 469 kts 268°
2026-04-14 14:35 58.09387 -35.77183 33555 ft 468 kts 268°
2026-04-14 14:35 58.09306 -35.89553 33556 ft 469 kts 268°
2026-04-14 14:36 58.09214 -36.01776 33570 ft 468 kts 268°
2026-04-14 14:36 58.09109 -36.14125 33577 ft 467 kts 268°
2026-04-14 14:37 58.08994 -36.26294 33573 ft 464 kts 268°
2026-04-14 14:37 58.08868 -36.38519 33587 ft 464 kts 268°
2026-04-14 14:38 58.08729 -36.50730 33589 ft 464 kts 268°
2026-04-14 14:38 58.08580 -36.62880 33588 ft 464 kts 267°
2026-04-14 14:39 58.08420 -36.74984 33595 ft 461 kts 268°
2026-04-14 14:39 58.08247 -36.87115 33607 ft 461 kts 268°
2026-04-14 14:40 58.08063 -36.99203 33610 ft 459 kts 268°
2026-04-14 14:40 58.07870 -37.11279 33615 ft 459 kts 267°
2026-04-14 14:41 58.07665 -37.23269 33617 ft 459 kts 268°
2026-04-14 14:41 58.07449 -37.35344 33621 ft 459 kts 267°
2026-04-14 14:42 58.07220 -37.47415 33637 ft 459 kts 267°
2026-04-14 14:42 58.06982 -37.59402 33630 ft 459 kts 267°
2026-04-14 14:43 58.06730 -37.71458 33646 ft 458 kts 266°
2026-04-14 14:43 58.06471 -37.83384 33651 ft 456 kts 266°
2026-04-14 14:44 58.06200 -37.95372 33650 ft 456 kts 266°
2026-04-14 14:44 58.05919 -38.07282 33656 ft 456 kts 266°
2026-04-14 14:45 58.05624 -38.19249 33666 ft 455 kts 266°
2026-04-14 14:45 58.05319 -38.31229 33668 ft 456 kts 266°
2026-04-14 14:46 58.05004 -38.43102 33670 ft 452 kts 266°
2026-04-14 14:46 58.04732 -38.53052 33684 ft 453 kts 266°
2026-04-14 14:47 58.04401 -38.64829 33684 ft 452 kts 266°
2026-04-14 14:47 58.04056 -38.76701 33691 ft 452 kts 266°
2026-04-14 14:48 58.03700 -38.88514 33680 ft 448 kts 265°
2026-04-14 14:48 58.03340 -39.00184 33701 ft 449 kts 265°
2026-04-14 14:49 58.02964 -39.11943 33696 ft 447 kts 267°
2026-04-14 14:49 58.02579 -39.23671 33704 ft 447 kts 266°
2026-04-14 14:50 58.02186 -39.35284 33709 ft 445 kts 266°
2026-04-14 14:50 58.01782 -39.46977 33715 ft 447 kts 266°
2026-04-14 14:51 58.01369 -39.58590 33716 ft 445 kts 265°
2026-04-14 14:51 58.00940 -39.70294 33721 ft 446 kts 266°
2026-04-14 14:52 58.00504 -39.81862 33734 ft 444 kts 266°
2026-04-14 14:52 58.00057 -39.93532 33733 ft 445 kts 266°
2026-04-14 14:53 57.99584 -40.05161 33730 ft 444 kts 265°
2026-04-14 14:53 57.98899 -40.16712 33732 ft 445 kts 264°
2026-04-14 14:54 57.98145 -40.28309 33746 ft 445 kts 264°
2026-04-14 14:54 57.97413 -40.39834 33745 ft 444 kts 264°
2026-04-14 14:55 57.96690 -40.51408 33744 ft 445 kts 264°
2026-04-14 14:55 57.95961 -40.63002 33746 ft 445 kts 264°
2026-04-14 14:56 57.94851 -40.80296 33759 ft 444 kts 263°
2026-04-14 14:56 57.94093 -40.91890 33760 ft 445 kts 263°
2026-04-14 14:57 57.93329 -41.03403 33761 ft 445 kts 263°
2026-04-14 14:57 57.92550 -41.14981 33769 ft 445 kts 264°
2026-04-14 14:58 57.91761 -41.26539 33758 ft 445 kts 263°
2026-04-14 14:58 57.90967 -41.38022 33773 ft 443 kts 264°
2026-04-14 14:59 57.90159 -41.49553 33776 ft 444 kts 263°
2026-04-14 14:59 57.89346 -41.61005 33774 ft 443 kts 263°
2026-04-14 15:00 57.88521 -41.72477 33777 ft 444 kts 263°
2026-04-14 15:00 57.87683 -41.83979 33778 ft 443 kts 263°
2026-04-14 15:01 57.86833 -41.95479 33776 ft 444 kts 263°
2026-04-14 15:01 57.85982 -42.06866 33787 ft 441 kts 262°
2026-04-14 15:02 57.85119 -42.18254 33786 ft 438 kts 262°
2026-04-14 15:02 57.84250 -42.29598 33785 ft 439 kts 262°
2026-04-14 15:03 57.83376 -42.40867 33794 ft 438 kts 262°
2026-04-14 15:03 57.82485 -42.52209 33802 ft 439 kts 262°
2026-04-14 15:04 57.81586 -42.63536 33795 ft 439 kts 261°
2026-04-14 15:04 57.80682 -42.74805 33800 ft 438 kts 261°
2026-04-14 15:05 57.79760 -42.86149 33801 ft 439 kts 261°
2026-04-14 15:05 57.78834 -42.97404 33813 ft 438 kts 261°
2026-04-14 15:06 57.77893 -43.08713 33813 ft 439 kts 261°
2026-04-14 15:06 57.76945 -43.19997 33813 ft 438 kts 260°
2026-04-14 15:07 57.75993 -43.31190 33810 ft 436 kts 260°
2026-04-14 15:07 57.75029 -43.42413 33821 ft 437 kts 259°
2026-04-14 15:08 57.74049 -43.53702 33827 ft 438 kts 259°
2026-04-14 15:08 57.73064 -43.64913 33823 ft 438 kts 259°
2026-04-14 15:09 57.72064 -43.76180 33827 ft 438 kts 259°
2026-04-14 15:09 57.71054 -43.87442 33834 ft 438 kts 259°
2026-04-14 15:10 57.70041 -43.98626 33836 ft 438 kts 259°
2026-04-14 15:10 57.69011 -44.09882 33830 ft 438 kts 259°
2026-04-14 15:11 57.67977 -44.21058 33837 ft 439 kts 259°
2026-04-14 15:11 57.66927 -44.32313 33844 ft 439 kts 258°
2026-04-14 15:12 57.65866 -44.43549 33843 ft 438 kts 258°
2026-04-14 15:12 57.64796 -44.54773 33846 ft 438 kts 258°
2026-04-14 15:13 57.63722 -44.65927 33849 ft 438 kts 258°
2026-04-14 15:13 57.62634 -44.77132 33852 ft 438 kts 258°
2026-04-14 15:14 57.61536 -44.88321 33854 ft 438 kts 258°
2026-04-14 15:14 57.60433 -44.99454 33857 ft 438 kts 258°
2026-04-14 15:15 57.59314 -45.10645 33856 ft 438 kts 258°
2026-04-14 15:15 57.58194 -45.21739 33856 ft 438 kts 258°
2026-04-14 15:16 57.57053 -45.32937 33869 ft 438 kts 258°
2026-04-14 15:16 57.55912 -45.44029 33852 ft 437 kts 257°
2026-04-14 15:17 57.54757 -45.55162 33860 ft 437 kts 257°
2026-04-14 15:17 57.53600 -45.66211 33858 ft 436 kts 257°
2026-04-14 15:18 57.52433 -45.77259 33860 ft 436 kts 257°
2026-04-14 15:18 57.51251 -45.88344 33859 ft 436 kts 257°
2026-04-14 15:19 57.50057 -45.99444 33861 ft 436 kts 257°
2026-04-14 15:19 57.48864 -46.10443 33866 ft 436 kts 257°
2026-04-14 15:20 57.47652 -46.21516 33863 ft 436 kts 257°
2026-04-14 15:20 57.46439 -46.32501 33862 ft 435 kts 257°
2026-04-14 15:21 57.45210 -46.43543 33875 ft 435 kts 257°
2026-04-14 15:21 57.43974 -46.54551 33864 ft 435 kts 256°
2026-04-14 15:22 57.42736 -46.65481 33862 ft 435 kts 256°
2026-04-14 15:22 57.41481 -46.76482 33862 ft 435 kts 256°
2026-04-14 15:23 57.40224 -46.87397 33874 ft 435 kts 256°
2026-04-14 15:23 57.38949 -46.98382 33861 ft 434 kts 256°
2026-04-14 15:24 57.37676 -47.09262 33861 ft 434 kts 256°
2026-04-14 15:24 57.36386 -47.20197 33863 ft 434 kts 256°
2026-04-14 15:25 57.35087 -47.31123 33866 ft 434 kts 256°
2026-04-14 15:25 57.33785 -47.41989 33863 ft 434 kts 256°
2026-04-14 15:26 57.32465 -47.52911 33866 ft 434 kts 256°
2026-04-14 15:26 57.31147 -47.63736 33862 ft 433 kts 256°
2026-04-14 15:27 57.29809 -47.74643 33859 ft 434 kts 255°
2026-04-14 15:27 57.28469 -47.85473 33859 ft 434 kts 255°
2026-04-14 15:28 57.27111 -47.96372 33856 ft 434 kts 255°
2026-04-14 15:28 57.25753 -48.07191 33856 ft 434 kts 255°
2026-04-14 15:29 57.24378 -48.18062 33856 ft 434 kts 255°
2026-04-14 15:29 57.23001 -48.28861 33856 ft 433 kts 255°
2026-04-14 15:30 57.21616 -48.39644 33856 ft 433 kts 255°
2026-04-14 15:30 57.20213 -48.50492 33856 ft 433 kts 255°
2026-04-14 15:31 57.18810 -48.61255 33854 ft 433 kts 255°
2026-04-14 15:31 57.17390 -48.72067 33853 ft 433 kts 254°
2026-04-14 15:32 57.15972 -48.82789 33852 ft 433 kts 254°
2026-04-14 15:32 57.14534 -48.93581 33845 ft 433 kts 254°
2026-04-14 15:33 57.13087 -49.04365 33851 ft 433 kts 254°
2026-04-14 15:33 57.11640 -49.15073 33848 ft 433 kts 254°
2026-04-14 15:34 57.10171 -49.25872 33848 ft 433 kts 254°
2026-04-14 15:34 57.08704 -49.36572 33848 ft 433 kts 254°
2026-04-14 15:35 57.07219 -49.47332 33845 ft 433 kts 254°
2026-04-14 15:35 57.05733 -49.58026 33846 ft 433 kts 254°
2026-04-14 15:36 57.04237 -49.68713 33840 ft 433 kts 253°
2026-04-14 15:36 57.02983 -49.77617 33839 ft 433 kts 253°
2026-04-14 15:37 57.01464 -49.88334 33837 ft 433 kts 253°
2026-04-14 15:37 56.99856 -49.98926 33839 ft 432 kts 249°
2026-04-14 15:38 56.97610 -50.09157 33839 ft 432 kts 245°
2026-04-14 15:38 56.95180 -50.19263 33834 ft 433 kts 244°
2026-04-14 15:39 56.92730 -50.29283 33834 ft 432 kts 245°
2026-04-14 15:39 56.90275 -50.39321 33829 ft 431 kts 245°
2026-04-14 15:40 56.87832 -50.49299 33829 ft 431 kts 244°
2026-04-14 15:40 56.85368 -50.59326 33829 ft 432 kts 244°
2026-04-14 15:41 56.82896 -50.69343 33829 ft 432 kts 244°
2026-04-14 15:41 56.80430 -50.79290 33826 ft 431 kts 244°
2026-04-14 15:42 56.77960 -50.89201 33832 ft 430 kts 244°
2026-04-14 15:42 56.75473 -50.99143 33828 ft 429 kts 244°
2026-04-14 15:43 56.73000 -51.08981 33829 ft 429 kts 244°
2026-04-14 15:43 56.70503 -51.18872 33828 ft 429 kts 244°
2026-04-14 15:44 56.68008 -51.28710 33826 ft 429 kts 244°
2026-04-14 15:44 56.65495 -51.38572 33828 ft 429 kts 244°
2026-04-14 15:45 56.62981 -51.48399 33826 ft 428 kts 243°
2026-04-14 15:45 56.60455 -51.58227 33826 ft 428 kts 243°
2026-04-14 15:46 56.57945 -51.67954 33828 ft 428 kts 243°
2026-04-14 15:46 56.55401 -51.77767 33829 ft 428 kts 243°
2026-04-14 15:47 56.52867 -51.87499 33826 ft 428 kts 243°
2026-04-14 15:47 56.50313 -51.97261 33826 ft 427 kts 243°
2026-04-14 15:48 56.47777 -52.06919 33826 ft 427 kts 243°
2026-04-14 15:48 56.45210 -52.16648 33829 ft 427 kts 243°
2026-04-14 15:49 56.42655 -52.26293 33829 ft 427 kts 243°
2026-04-14 15:49 56.40071 -52.36005 33829 ft 427 kts 243°
2026-04-14 15:50 56.37506 -52.45604 33828 ft 427 kts 243°
2026-04-14 15:50 56.34916 -52.55258 33829 ft 426 kts 243°
2026-04-14 15:51 56.32336 -52.64830 33829 ft 426 kts 243°
2026-04-14 15:51 56.29733 -52.74451 33829 ft 426 kts 242°
2026-04-14 15:52 56.27123 -52.84054 33829 ft 426 kts 242°
2026-04-14 15:52 56.24522 -52.93585 33829 ft 426 kts 242°
2026-04-14 15:53 56.21902 -53.03148 33829 ft 425 kts 242°
2026-04-14 15:53 56.19279 -53.12678 33829 ft 425 kts 242°
2026-04-14 15:54 56.15347 -53.26892 33826 ft 425 kts 242°
2026-04-14 15:55 56.12704 -53.36398 33829 ft 425 kts 242°
2026-04-14 15:55 56.10073 -53.45824 33842 ft 425 kts 242°
2026-04-14 15:56 56.07416 -53.55297 33825 ft 424 kts 242°
2026-04-14 15:56 56.04774 -53.64685 33826 ft 422 kts 242°
2026-04-14 15:57 56.02133 -53.74038 33823 ft 421 kts 242°
2026-04-14 15:57 55.99485 -53.83374 33823 ft 420 kts 241°
2026-04-14 15:58 55.96844 -53.92642 33826 ft 420 kts 241°
2026-04-14 15:58 55.94181 -54.01950 33818 ft 420 kts 241°
2026-04-14 15:59 55.91511 -54.11247 33821 ft 420 kts 241°
2026-04-14 15:59 55.88855 -54.20458 33819 ft 420 kts 241°
2026-04-14 16:00 55.86172 -54.29726 33818 ft 420 kts 241°
2026-04-14 16:00 55.83497 -54.38927 33821 ft 420 kts 241°
2026-04-14 16:01 55.80803 -54.48161 33820 ft 420 kts 241°
2026-04-14 16:01 55.78118 -54.57324 33812 ft 420 kts 241°
2026-04-14 16:02 55.75407 -54.66545 33812 ft 420 kts 241°
2026-04-14 16:02 55.72688 -54.75754 33831 ft 420 kts 241°
2026-04-14 16:03 55.69975 -54.84907 33808 ft 421 kts 241°
2026-04-14 16:03 55.67234 -54.94118 33808 ft 421 kts 240°
2026-04-14 16:04 55.64502 -55.03263 33796 ft 421 kts 241°
2026-04-14 16:04 55.61751 -55.12439 33804 ft 422 kts 241°
2026-04-14 16:05 55.59005 -55.21558 33807 ft 422 kts 241°
2026-04-14 16:05 55.56233 -55.30728 33798 ft 422 kts 241°
2026-04-14 16:06 55.53465 -55.39850 33802 ft 422 kts 241°
2026-04-14 16:06 55.50698 -55.48935 33793 ft 422 kts 241°
2026-04-14 16:07 55.47906 -55.58066 33791 ft 422 kts 241°
2026-04-14 16:07 55.45124 -55.67129 33785 ft 422 kts 241°
2026-04-14 16:08 55.42321 -55.76229 33788 ft 422 kts 241°
2026-04-14 16:08 55.39503 -55.85338 33788 ft 422 kts 241°
2026-04-14 16:09 55.36696 -55.94381 33785 ft 422 kts 241°
2026-04-14 16:09 55.33883 -56.03406 33778 ft 423 kts 241°
2026-04-14 16:10 55.31047 -56.12475 33782 ft 423 kts 241°
2026-04-14 16:10 55.28206 -56.21519 33782 ft 422 kts 241°
2026-04-14 16:11 55.25381 -56.30481 33782 ft 422 kts 241°
2026-04-14 16:11 55.22526 -56.39506 33782 ft 422 kts 241°
2026-04-14 16:12 55.19663 -56.48522 33782 ft 422 kts 241°
2026-04-14 16:12 55.16810 -56.57467 33781 ft 422 kts 241°
2026-04-14 16:13 55.13936 -56.66450 33785 ft 422 kts 241°
2026-04-14 16:13 55.11073 -56.75366 33785 ft 422 kts 241°
2026-04-14 16:14 55.08196 -56.84292 33793 ft 422 kts 241°
2026-04-14 16:14 55.05318 -56.93168 33797 ft 422 kts 240°
2026-04-14 16:15 55.01936 -57.01567 33784 ft 424 kts 231°
2026-04-14 16:15 54.97854 -57.08961 33801 ft 427 kts 226°
2026-04-14 16:16 54.93570 -57.16164 33809 ft 428 kts 226°
2026-04-14 16:16 54.89283 -57.23308 33809 ft 428 kts 226°
2026-04-14 16:17 54.84984 -57.30497 33813 ft 428 kts 226°
2026-04-14 16:17 54.80722 -57.37633 33809 ft 428 kts 226°
2026-04-14 16:18 54.76416 -57.44826 33821 ft 428 kts 226°
2026-04-14 16:18 54.72144 -57.51940 33818 ft 429 kts 226°
2026-04-14 16:19 54.67818 -57.59119 33827 ft 431 kts 226°
2026-04-14 16:19 54.63486 -57.66285 33830 ft 431 kts 226°
2026-04-14 16:20 54.59162 -57.73413 33829 ft 431 kts 226°
2026-04-14 16:20 54.54828 -57.80538 33829 ft 432 kts 226°
2026-04-14 16:21 54.50472 -57.87675 33829 ft 432 kts 226°
2026-04-14 16:21 54.46109 -57.94803 33833 ft 432 kts 226°
2026-04-14 16:22 54.41771 -58.01869 33834 ft 432 kts 226°
2026-04-14 16:22 54.37394 -58.08978 33839 ft 432 kts 226°
2026-04-14 16:23 54.33037 -58.16031 33846 ft 432 kts 226°
2026-04-14 16:23 54.28653 -58.23105 33850 ft 432 kts 226°
2026-04-14 16:24 54.24280 -58.30140 33853 ft 432 kts 226°
2026-04-14 16:24 54.19917 -58.37139 33856 ft 432 kts 226°
2026-04-14 16:25 54.15535 -58.44147 33859 ft 431 kts 226°
2026-04-14 16:25 54.11891 -58.49957 33864 ft 431 kts 226°
2026-04-14 16:26 54.06789 -58.58068 33865 ft 431 kts 226°
2026-04-14 16:26 54.03138 -58.63855 33869 ft 431 kts 226°
2026-04-14 16:27 53.98735 -58.70815 33875 ft 430 kts 227°
2026-04-14 16:27 53.94368 -58.77696 33863 ft 430 kts 227°
2026-04-14 16:28 53.89968 -58.84610 33883 ft 430 kts 227°
2026-04-14 16:28 53.85573 -58.91495 33862 ft 430 kts 227°
2026-04-14 16:29 53.81202 -58.98319 33862 ft 429 kts 227°
2026-04-14 16:29 53.76799 -59.05174 33880 ft 428 kts 227°
2026-04-14 16:30 53.72431 -59.11956 33885 ft 428 kts 227°
2026-04-14 16:30 53.68036 -59.18761 33889 ft 428 kts 227°
2026-04-14 16:31 53.63631 -59.25559 33881 ft 428 kts 227°
2026-04-14 16:31 53.59226 -59.32338 33881 ft 428 kts 227°
2026-04-14 16:32 53.54823 -59.39092 33890 ft 428 kts 227°
2026-04-14 16:32 53.50434 -59.45805 33895 ft 428 kts 227°
2026-04-14 16:33 53.46047 -59.52497 33899 ft 428 kts 227°
2026-04-14 16:33 53.41626 -59.59220 33856 ft 428 kts 227°
2026-04-14 16:34 53.37203 -59.65926 33905 ft 428 kts 227°
2026-04-14 16:34 53.32804 -59.72580 33905 ft 428 kts 227°
2026-04-14 16:35 53.28386 -59.79241 33900 ft 428 kts 227°
2026-04-14 16:35 53.23950 -59.85908 33901 ft 429 kts 227°
2026-04-14 16:36 53.19501 -59.92576 33903 ft 429 kts 227°
2026-04-14 16:36 53.15047 -59.99233 33896 ft 430 kts 227°
2026-04-14 16:37 53.10602 -60.05856 33909 ft 430 kts 227°
2026-04-14 16:37 53.06145 -60.12478 33903 ft 430 kts 227°
2026-04-14 16:38 53.01686 -60.19082 33859 ft 430 kts 227°
2026-04-14 16:38 52.97195 -60.25717 33893 ft 431 kts 227°
2026-04-14 16:39 52.92709 -60.32325 33890 ft 431 kts 227°
2026-04-14 16:39 52.88246 -60.38879 33889 ft 431 kts 227°
2026-04-14 16:40 52.83749 -60.45465 33889 ft 431 kts 227°
2026-04-14 16:40 52.79250 -60.52034 33883 ft 432 kts 227°
2026-04-14 16:41 52.74771 -60.58558 33886 ft 432 kts 227°
2026-04-14 16:41 52.70247 -60.65126 33887 ft 432 kts 227°
2026-04-14 16:42 52.65723 -60.71657 33902 ft 431 kts 227°
2026-04-14 16:42 52.61233 -60.78145 33847 ft 431 kts 228°
2026-04-14 16:43 52.56736 -60.84632 33901 ft 433 kts 228°
2026-04-14 16:43 52.52199 -60.91147 33903 ft 433 kts 228°
2026-04-14 16:44 52.47650 -60.97657 33903 ft 433 kts 228°
2026-04-14 16:44 52.43129 -61.04106 33907 ft 433 kts 228°
2026-04-14 16:45 52.36291 -61.13832 33911 ft 433 kts 228°
2026-04-14 16:45 52.31749 -61.20270 33911 ft 433 kts 227°
2026-04-14 16:46 52.27173 -61.26737 33920 ft 433 kts 227°
2026-04-14 16:46 52.22609 -61.33168 33920 ft 433 kts 227°
2026-04-14 16:47 52.18069 -61.39549 33922 ft 433 kts 228°
2026-04-14 16:47 52.13512 -61.45934 33924 ft 433 kts 228°
2026-04-14 16:48 52.08938 -61.52324 33928 ft 433 kts 228°
2026-04-14 16:48 52.04356 -61.58709 33927 ft 433 kts 228°
2026-04-14 16:49 51.99769 -61.65082 33943 ft 433 kts 229°
2026-04-14 16:49 51.95210 -61.71400 33925 ft 433 kts 229°
2026-04-14 16:50 51.90626 -61.77735 33928 ft 433 kts 229°
2026-04-14 16:50 51.86028 -61.84071 33953 ft 433 kts 229°
2026-04-14 16:51 51.81462 -61.90345 33926 ft 433 kts 229°
2026-04-14 16:51 51.76868 -61.96639 33948 ft 431 kts 229°
2026-04-14 16:52 51.72279 -62.02911 33947 ft 431 kts 229°
2026-04-14 16:52 51.67718 -62.09127 33948 ft 431 kts 229°
2026-04-14 16:53 51.63146 -62.15343 33919 ft 431 kts 229°
2026-04-14 16:53 51.58561 -62.21554 33946 ft 430 kts 230°
2026-04-14 16:54 51.53978 -62.27747 33950 ft 429 kts 230°
2026-04-14 16:54 51.49401 -62.33919 33953 ft 429 kts 230°
2026-04-14 16:55 51.44847 -62.40045 33947 ft 429 kts 230°
2026-04-14 16:55 51.40262 -62.46188 33946 ft 428 kts 230°
2026-04-14 16:56 51.35696 -62.52291 33951 ft 427 kts 230°
2026-04-14 16:56 51.31137 -62.58371 33952 ft 427 kts 230°
2026-04-14 16:57 51.26591 -62.64421 33974 ft 427 kts 230°
2026-04-14 16:57 51.22019 -62.70487 33939 ft 426 kts 232°
2026-04-14 16:58 51.17491 -62.76470 33946 ft 423 kts 232°
2026-04-14 16:58 51.12970 -62.82433 33952 ft 423 kts 232°
2026-04-14 16:59 51.08430 -62.88415 33957 ft 422 kts 232°
2026-04-14 16:59 51.03892 -62.94373 33908 ft 422 kts 232°
2026-04-14 17:00 50.99400 -63.00245 33961 ft 418 kts 233°
2026-04-14 17:00 50.94910 -63.06105 33959 ft 417 kts 233°
2026-04-14 17:01 50.90458 -63.11914 33958 ft 416 kts 233°
2026-04-14 17:01 50.85970 -63.17753 33952 ft 416 kts 233°
2026-04-14 17:02 50.81482 -63.23561 33950 ft 414 kts 234°
2026-04-14 17:02 50.77061 -63.29259 33947 ft 411 kts 234°
2026-04-14 17:03 50.72628 -63.34983 33942 ft 411 kts 234°
2026-04-14 17:03 50.68194 -63.40692 33936 ft 411 kts 234°
2026-04-14 17:04 50.63796 -63.46312 33923 ft 405 kts 234°
2026-04-14 17:04 50.59454 -63.51866 33942 ft 402 kts 234°
2026-04-14 17:05 50.55113 -63.57426 33925 ft 402 kts 234°
2026-04-14 17:05 50.50785 -63.62940 33937 ft 402 kts 234°
2026-04-14 17:06 50.46429 -63.68476 33936 ft 402 kts 234°
2026-04-14 17:06 50.42086 -63.73982 33929 ft 402 kts 234°
2026-04-14 17:07 50.37720 -63.79505 33940 ft 402 kts 233°
2026-04-14 17:07 50.33382 -63.84982 33944 ft 402 kts 233°
2026-04-14 17:08 50.29005 -63.90478 33950 ft 402 kts 233°
2026-04-14 17:08 50.24657 -63.95929 33957 ft 402 kts 233°
2026-04-14 17:09 50.20291 -64.01388 33960 ft 400 kts 233°
2026-04-14 17:09 50.15936 -64.06828 33964 ft 400 kts 233°
2026-04-14 17:10 50.11612 -64.12219 33964 ft 400 kts 233°
2026-04-14 17:10 50.07249 -64.17642 33905 ft 400 kts 233°
2026-04-14 17:11 50.02917 -64.23015 33967 ft 400 kts 232°
2026-04-14 17:11 49.98547 -64.28419 33971 ft 400 kts 232°
2026-04-14 17:12 49.94168 -64.33822 33978 ft 400 kts 232°
2026-04-14 17:12 49.89824 -64.39168 33976 ft 401 kts 232°
2026-04-14 17:13 49.85456 -64.44533 33979 ft 400 kts 232°
2026-04-14 17:13 49.81105 -64.49863 33980 ft 400 kts 232°
2026-04-14 17:14 49.76728 -64.55214 33985 ft 400 kts 232°
2026-04-14 17:14 49.72343 -64.60561 33991 ft 400 kts 232°
2026-04-14 17:15 49.67992 -64.65855 33960 ft 400 kts 232°
2026-04-14 17:15 49.63624 -64.71161 33996 ft 401 kts 232°
2026-04-14 17:16 49.59963 -64.75594 33996 ft 401 kts 231°
2026-04-14 17:16 49.54848 -64.81771 34004 ft 401 kts 231°
2026-04-14 17:17 49.51181 -64.86191 34007 ft 401 kts 231°
2026-04-14 17:17 49.46774 -64.91496 34013 ft 402 kts 231°
2026-04-14 17:18 49.42347 -64.96809 34009 ft 403 kts 231°
2026-04-14 17:18 49.37947 -65.02075 34022 ft 403 kts 231°
2026-04-14 17:19 49.33518 -65.07363 34019 ft 403 kts 231°
2026-04-14 17:19 49.29106 -65.12620 34010 ft 403 kts 231°
2026-04-14 17:20 49.24667 -65.17898 34026 ft 403 kts 231°
2026-04-14 17:20 49.20254 -65.23128 34025 ft 403 kts 231°
2026-04-14 17:21 49.15807 -65.28391 34015 ft 403 kts 231°
2026-04-14 17:21 49.11359 -65.33653 33976 ft 403 kts 230°
2026-04-14 17:22 49.06937 -65.38855 34027 ft 402 kts 230°
2026-04-14 17:22 49.02502 -65.44065 34021 ft 402 kts 230°
2026-04-14 17:23 48.98067 -65.49263 34023 ft 402 kts 230°
2026-04-14 17:23 48.93649 -65.54426 34023 ft 402 kts 230°
2026-04-14 17:24 48.89208 -65.59611 34012 ft 402 kts 230°
2026-04-14 17:24 48.84800 -65.64736 34011 ft 401 kts 230°
2026-04-14 17:25 48.80360 -65.69899 34011 ft 401 kts 230°
2026-04-14 17:25 48.75935 -65.75034 34025 ft 401 kts 230°
2026-04-14 17:26 48.71481 -65.80178 34011 ft 401 kts 229°
2026-04-14 17:26 48.67065 -65.85268 34020 ft 401 kts 229°
2026-04-14 17:27 48.62619 -65.90392 34020 ft 401 kts 229°
2026-04-14 17:27 48.58179 -65.95493 34018 ft 400 kts 229°
2026-04-14 17:28 48.53752 -66.00565 34015 ft 400 kts 229°
2026-04-14 17:28 48.49325 -66.05627 34025 ft 401 kts 229°
2026-04-14 17:29 48.44868 -66.10707 34019 ft 401 kts 229°
2026-04-14 17:29 48.40439 -66.15751 34026 ft 400 kts 229°
2026-04-14 17:30 48.35986 -66.20821 34002 ft 400 kts 228°
2026-04-14 17:30 48.31558 -66.25834 34022 ft 400 kts 228°
2026-04-14 17:31 48.27106 -66.30872 34021 ft 399 kts 228°
2026-04-14 17:31 48.22682 -66.35879 34021 ft 400 kts 228°
2026-04-14 17:32 48.18214 -66.40902 34038 ft 400 kts 228°
2026-04-14 17:32 48.13753 -66.45900 34041 ft 401 kts 227°
2026-04-14 17:33 48.09293 -66.50892 34041 ft 402 kts 227°
2026-04-14 17:34 48.02566 -66.58406 34046 ft 401 kts 227°
2026-04-14 17:34 47.98112 -66.63371 34021 ft 401 kts 227°
2026-04-14 17:35 47.93621 -66.68372 34046 ft 403 kts 227°
2026-04-14 17:35 47.89101 -66.73384 34059 ft 404 kts 227°
2026-04-14 17:36 47.84615 -66.78345 34048 ft 404 kts 227°
2026-04-14 17:36 47.80085 -66.83347 34040 ft 404 kts 226°
2026-04-14 17:37 47.75590 -66.88302 34050 ft 404 kts 226°
2026-04-14 17:37 47.71064 -66.93279 34052 ft 404 kts 226°
2026-04-14 17:38 47.66525 -66.98257 34052 ft 404 kts 226°
2026-04-14 17:38 47.62030 -67.03179 34011 ft 404 kts 226°
2026-04-14 17:39 47.57470 -67.08169 34056 ft 408 kts 226°
2026-04-14 17:39 47.52887 -67.13162 34056 ft 409 kts 226°
2026-04-14 17:40 47.48323 -67.18120 34055 ft 409 kts 226°
2026-04-14 17:40 47.43720 -67.23113 34021 ft 409 kts 226°
2026-04-14 17:41 47.39126 -67.28094 34060 ft 413 kts 226°
2026-04-14 17:41 47.34401 -67.32992 34054 ft 419 kts 221°
2026-04-14 17:42 47.29418 -67.37452 34056 ft 421 kts 221°
2026-04-14 17:42 47.24408 -67.41952 34053 ft 421 kts 221°
2026-04-14 17:43 47.19426 -67.46449 34053 ft 423 kts 221°
2026-04-14 17:43 47.14400 -67.50981 34059 ft 423 kts 221°
2026-04-14 17:44 47.09375 -67.55506 34063 ft 423 kts 221°
2026-04-14 17:44 47.04379 -67.59996 34046 ft 424 kts 221°
2026-04-14 17:45 46.99337 -67.64518 34054 ft 425 kts 221°
2026-04-14 17:45 46.94302 -67.69022 34044 ft 425 kts 221°
2026-04-14 17:46 46.89231 -67.73549 34037 ft 425 kts 221°
2026-04-14 17:46 46.84191 -67.78038 34038 ft 425 kts 221°
2026-04-14 17:47 46.79118 -67.82547 34035 ft 425 kts 221°
2026-04-14 17:47 46.74095 -67.87001 34048 ft 425 kts 221°
2026-04-14 17:48 46.69023 -67.91489 34046 ft 425 kts 221°
2026-04-14 17:48 46.63949 -67.95969 34045 ft 425 kts 220°
2026-04-14 17:49 46.58902 -68.00415 34048 ft 425 kts 221°
2026-04-14 17:49 46.53845 -68.04860 34061 ft 425 kts 220°
2026-04-14 17:50 46.48772 -68.09310 34066 ft 425 kts 220°
2026-04-14 17:50 46.43722 -68.13728 34084 ft 424 kts 220°
2026-04-14 17:51 46.38680 -68.18131 34104 ft 424 kts 220°
2026-04-14 17:51 46.33613 -68.22546 34102 ft 424 kts 220°
2026-04-14 17:52 46.28536 -68.26962 34103 ft 425 kts 220°
2026-04-14 17:52 46.23481 -68.31347 34101 ft 425 kts 220°
2026-04-14 17:53 46.18397 -68.35747 34094 ft 425 kts 220°
2026-04-14 17:53 46.13310 -68.40141 34065 ft 425 kts 220°
2026-04-14 17:54 46.08256 -68.44496 34083 ft 425 kts 220°
2026-04-14 17:54 46.03175 -68.48866 34075 ft 425 kts 220°
2026-04-14 17:55 45.98117 -68.53207 34070 ft 425 kts 220°
2026-04-14 17:55 45.93034 -68.57559 34072 ft 424 kts 219°
2026-04-14 17:56 45.87984 -68.61872 34057 ft 423 kts 219°
2026-04-14 17:56 45.82914 -68.66196 34062 ft 424 kts 219°
2026-04-14 17:57 45.77842 -68.70511 34008 ft 424 kts 219°
2026-04-14 17:57 45.72799 -68.74793 34050 ft 423 kts 219°
2026-04-14 17:58 45.67733 -68.79085 34046 ft 423 kts 219°
2026-04-14 17:58 45.62670 -68.83365 34076 ft 424 kts 219°
2026-04-14 17:59 45.57586 -68.87659 34135 ft 429 kts 218°
2026-04-14 17:59 45.52403 -68.92020 34355 ft 431 kts 218°
2026-04-14 17:59 45.49840 -68.94172 34475 ft 432 kts 218°
2026-04-14 18:00 45.47245 -68.96350 34603 ft 432 kts 218°
2026-04-14 18:00 45.44645 -68.98529 34766 ft 432 kts 218°
2026-04-14 18:00 45.39477 -69.02858 34932 ft 434 kts 218°
2026-04-14 18:01 45.36868 -69.05040 35061 ft 435 kts 218°
2026-04-14 18:01 45.34255 -69.07222 35193 ft 434 kts 218°
2026-04-14 18:01 45.31646 -69.09398 35328 ft 435 kts 218°
2026-04-14 18:01 45.29029 -69.11578 35455 ft 435 kts 218°
2026-04-14 18:02 45.23832 -69.15903 35681 ft 435 kts 218°
2026-04-14 18:02 45.18576 -69.20268 35833 ft 437 kts 218°
2026-04-14 18:03 45.15942 -69.22451 35943 ft 437 kts 218°
2026-04-14 18:03 45.13336 -69.24609 36004 ft 438 kts 218°
2026-04-14 18:03 45.08078 -69.28952 36003 ft 434 kts 218°
2026-04-14 18:04 45.02887 -69.33236 36001 ft 434 kts 217°
2026-04-14 18:04 44.98536 -69.36818 36006 ft 435 kts 217°
2026-04-14 18:05 44.93293 -69.41125 36002 ft 435 kts 217°
2026-04-14 18:05 44.88077 -69.45401 35999 ft 435 kts 217°
2026-04-14 18:06 44.82836 -69.49689 35994 ft 435 kts 217°
2026-04-14 18:06 44.77624 -69.53943 35983 ft 435 kts 217°
2026-04-14 18:07 44.72391 -69.58206 35976 ft 435 kts 217°
2026-04-14 18:07 44.67152 -69.62465 35968 ft 435 kts 217°
2026-04-14 18:08 44.61899 -69.66726 35961 ft 435 kts 217°
2026-04-14 18:08 44.56685 -69.70946 35961 ft 435 kts 217°
2026-04-14 18:09 44.51434 -69.75188 35956 ft 436 kts 217°
2026-04-14 18:09 44.46156 -69.79443 35962 ft 437 kts 216°
2026-04-14 18:10 44.40903 -69.83668 35992 ft 437 kts 216°
2026-04-14 18:10 44.35626 -69.87903 35962 ft 437 kts 216°
2026-04-14 18:11 44.30330 -69.92146 35982 ft 439 kts 216°
2026-04-14 18:11 44.25018 -69.96391 36003 ft 440 kts 216°
2026-04-14 18:12 44.19708 -70.00625 36001 ft 439 kts 216°
2026-04-14 18:12 44.14427 -70.04830 35996 ft 440 kts 216°
2026-04-14 18:13 44.09104 -70.09057 35987 ft 440 kts 216°
2026-04-14 18:13 44.03765 -70.13289 35995 ft 440 kts 216°
2026-04-14 18:14 43.98463 -70.17483 35985 ft 441 kts 216°
2026-04-14 18:14 43.93113 -70.21707 35992 ft 442 kts 216°
2026-04-14 18:15 43.87789 -70.25899 35997 ft 442 kts 216°
2026-04-14 18:15 43.82450 -70.30096 35998 ft 442 kts 215°
2026-04-14 18:16 43.77072 -70.34315 36008 ft 444 kts 215°
2026-04-14 18:16 43.71690 -70.38528 36004 ft 444 kts 215°
2026-04-14 18:17 43.66314 -70.42727 35997 ft 444 kts 215°
2026-04-14 18:17 43.60949 -70.46909 36008 ft 444 kts 215°
2026-04-14 18:18 43.55560 -70.51101 35999 ft 444 kts 215°
2026-04-14 18:18 43.50167 -70.55288 35973 ft 444 kts 215°
2026-04-14 18:19 43.44804 -70.59436 35988 ft 445 kts 214°
2026-04-14 18:19 43.39083 -70.62945 35989 ft 452 kts 205°
2026-04-14 18:20 43.33175 -70.65841 35974 ft 454 kts 205°
2026-04-14 18:20 43.27220 -70.68755 35989 ft 454 kts 205°
2026-04-14 18:21 43.21259 -70.71676 35997 ft 455 kts 205°
2026-04-14 18:21 43.15292 -70.74597 35989 ft 454 kts 205°
2026-04-14 18:22 43.09334 -70.77508 35989 ft 454 kts 205°
2026-04-14 18:22 43.03393 -70.80406 35987 ft 454 kts 205°
2026-04-14 18:23 42.97426 -70.83311 35975 ft 454 kts 205°
2026-04-14 18:23 42.91452 -70.86213 35991 ft 455 kts 205°
2026-04-14 18:24 42.85507 -70.89096 35986 ft 455 kts 206°
2026-04-14 18:24 42.79521 -70.91993 35959 ft 455 kts 206°
2026-04-14 18:25 42.73561 -70.94870 35974 ft 457 kts 205°
2026-04-14 18:25 42.67550 -70.97764 35971 ft 457 kts 205°
2026-04-14 18:26 42.61550 -71.00648 35946 ft 457 kts 205°
2026-04-14 18:26 42.55566 -71.03519 35973 ft 458 kts 205°
2026-04-14 18:27 42.49550 -71.06399 35971 ft 458 kts 205°
2026-04-14 18:27 42.43566 -71.09259 35953 ft 458 kts 205°
2026-04-14 18:28 42.37541 -71.12132 35971 ft 459 kts 205°
2026-04-14 18:28 42.31526 -71.14994 35973 ft 459 kts 205°
2026-04-14 18:29 42.25490 -71.17860 35942 ft 459 kts 205°
2026-04-14 18:29 42.19487 -71.20705 35961 ft 459 kts 205°
2026-04-14 18:30 42.13447 -71.23561 35988 ft 459 kts 205°
2026-04-14 18:30 42.07404 -71.26413 35971 ft 459 kts 205°
2026-04-14 18:31 42.01403 -71.29239 35990 ft 459 kts 205°
2026-04-14 18:31 41.95356 -71.32082 36000 ft 459 kts 205°
2026-04-14 18:32 41.89353 -71.34898 35981 ft 459 kts 205°
2026-04-14 18:32 41.83323 -71.37722 36005 ft 458 kts 205°
2026-04-14 18:33 41.77289 -71.40541 36007 ft 458 kts 205°
2026-04-14 18:34 41.66728 -71.49059 34201 ft 446 kts 225°
2026-04-14 18:34 41.64340 -71.51761 33338 ft 451 kts 224°
2026-04-14 18:34 41.61956 -71.54442 32541 ft 454 kts 224°
2026-04-14 18:35 41.59524 -71.57164 31780 ft 457 kts 224°
2026-04-14 18:35 41.57077 -71.59895 31046 ft 459 kts 223°
2026-04-14 18:35 41.54619 -71.62635 30346 ft 460 kts 223°
2026-04-14 18:35 41.52157 -71.65375 29625 ft 460 kts 223°
2026-04-14 18:36 41.49700 -71.68105 28934 ft 458 kts 223°
2026-04-14 18:36 41.47252 -71.70822 28288 ft 456 kts 223°
2026-04-14 18:36 41.44841 -71.73495 27653 ft 454 kts 223°
2026-04-14 18:36 41.42413 -71.76185 27067 ft 451 kts 223°
2026-04-14 18:37 41.39997 -71.78857 26507 ft 447 kts 223°
2026-04-14 18:37 41.37634 -71.81467 25975 ft 443 kts 223°
2026-04-14 18:37 41.35268 -71.84079 25482 ft 439 kts 223°
2026-04-14 18:37 41.32925 -71.86661 24982 ft 434 kts 223°
2026-04-14 18:38 41.30609 -71.89211 24506 ft 430 kts 223°
2026-04-14 18:38 41.28337 -71.91711 24007 ft 426 kts 223°
2026-04-14 18:38 41.26061 -71.94216 23562 ft 421 kts 223°
2026-04-14 18:38 41.23807 -71.96690 23060 ft 416 kts 223°
2026-04-14 18:39 41.21584 -71.99118 22644 ft 409 kts 223°
2026-04-14 18:39 41.19410 -72.01434 22482 ft 398 kts 221°
2026-04-14 18:39 41.17224 -72.03562 22820 ft 374 kts 217°
2026-04-14 18:39 41.15052 -72.05145 23764 ft 339 kts 207°
2026-04-14 18:40 41.12877 -72.05945 24115 ft 326 kts 192°
2026-04-14 18:40 41.10538 -72.05902 23262 ft 352 kts 175°
2026-04-14 18:40 41.08064 -72.04792 21388 ft 403 kts 155°
2026-04-14 18:40 41.05682 -72.02442 19456 ft 448 kts 138°
2026-04-14 18:41 41.03512 -71.99265 16118 ft 481 kts 132°
2026-04-14 18:41 41.01631 -71.96308 10993 ft 507 kts 133°